Location: Le Domaine
(47.0333°N, 76.5361°W)
Time: 05:26:40
(UTC-05:00)

S-56A Canister/Altair - Pass Details

Date: 22 November 2019
Orbit: 632 x 2500 km, 38.9° (Epoch: 14 December)

Event Time Altitude Azimuth Distance (km) Brightness Sun altitude
Rises 18:43:53 0° 262° (W) 5,004 13.2 -23.3°
Reaches altitude 10° 18:47:48 10° 258° (WSW) 3,701 12.1 -24.0°
Maximum altitude 18:56:08 44° 190° (S) 1,503 9.0 -25.4°
Enters shadow 18:58:15 34° 148° (SSE) 1,610 8.9 -25.8°
Drops below altitude 10° 19:01:48 10° 119° (ESE) 2,532 - -26.4°
Sets 19:04:02 0° 113° (ESE) 3,305 - -26.7°
